When you browse on this site, cookies collect data to enhance your experience and personalize the content and advertising you see.
Visit our Privacy Policy to learn more. By continuing to use the site, you agree to this use of cookies and data.
  • In Germany
  • List of Countries
  • For 7 days
  • Water Temperature
  • Weather Map
  • Weather Widgets
  • user-avatar
    Login

    Hourly Weather Saurimo

    Today, 23 September, Monday

    Time Temperature Precipitation Wind Pressure Humidity
    00:00 +22°C° 0 mm 1 mps 669 mmHg 74%
    01:00 +20°C° 0 mm 0 mps 669 mmHg 78%
    02:00 +20°C° 0 mm 0 mps 669 mmHg 77%
    03:00 +22°C° 0 mm 1 mps 669 mmHg 77%
    04:00 +22°C° 0 mm 1 mps 669 mmHg 77%
    05:00 +23°C° 0 mm 1 mps 670 mmHg 72%
    06:00 +24°C° 0 mm 1 mps 670 mmHg 68%
    07:00 +25°C° 0 mm 1 mps 671 mmHg 64%
    08:00 +28°C° 0 mm 1 mps 672 mmHg 55%
    09:00 +31°C° 0 mm 1 mps 672 mmHg 45%
    10:00 +35°C° 0 mm 2 mps 672 mmHg 36%
    11:00 +36°C° 0 mm 2 mps 672 mmHg 33%
    12:00 +36°C° 0 mm 2 mps 671 mmHg 30%
    13:00 +37°C° 0 mm 2 mps 670 mmHg 27%
    14:00 +36°C° 0 mm 2 mps 670 mmHg 29%
    15:00 +35°C° 0 mm 2 mps 670 mmHg 32%
    16:00 +34°C° 0 mm 2 mps 669 mmHg 34%
    17:00 +31°C° 0.1 mm 1 mps 669 mmHg 38%
    18:00 +30°C° 0.1 mm 1 mps 670 mmHg 43%
    19:00 +28°C° 0.1 mm 1 mps 670 mmHg 47%
    20:00 +28°C° 0.1 mm 1 mps 670 mmHg 50%
    21:00 +27°C° 0.1 mm 1 mps 670 mmHg 52%
    22:00 +27°C° 0.1 mm 1 mps 670 mmHg 55%
    23:00 +26°C° 0.1 mm 1 mps 670 mmHg 59%

    Tomorrow, 24 September, Tuesday

    Time Temperature Precipitation Wind Pressure Humidity
    00:00 +25°C° 0.1 mm 1 mps 669 mmHg 62%
    01:00 +24°C° 0.1 mm 1 mps 669 mmHg 66%
    02:00 +23°C° 0 mm 1 mps 669 mmHg 68%
    03:00 +23°C° 0 mm 1 mps 669 mmHg 71%
    04:00 +22°C° 0 mm 1 mps 668 mmHg 73%
    05:00 +23°C° 0 mm 1 mps 669 mmHg 69%
    06:00 +25°C° 0 mm 1 mps 670 mmHg 65%
    07:00 +26°C° 0 mm 1 mps 671 mmHg 62%
    08:00 +29°C° 0 mm 1 mps 671 mmHg 52%
    09:00 +33°C° 0 mm 1 mps 672 mmHg 43%
    10:00 +36°C° 0 mm 1 mps 673 mmHg 33%
    11:00 +36°C° 0 mm 1 mps 672 mmHg 31%
    12:00 +36°C° 0 mm 1 mps 671 mmHg 29%
    13:00 +36°C° 0 mm 1 mps 670 mmHg 27%
    14:00 +36°C° 0 mm 2 mps 670 mmHg 29%
    15:00 +35°C° 0 mm 2 mps 670 mmHg 31%
    16:00 +34°C° 0 mm 3 mps 669 mmHg 33%
    17:00 +30°C° 0 mm 2 mps 669 mmHg 42%
    18:00 +28°C° 0 mm 2 mps 669 mmHg 51%
    19:00 +26°C° 0 mm 2 mps 669 mmHg 60%
    20:00 +25°C° 0 mm 2 mps 669 mmHg 65%
    21:00 +24°C° 0 mm 2 mps 669 mmHg 69%
    22:00 +23°C° 0 mm 2 mps 669 mmHg 73%
    23:00 +21°C° 0 mm 2 mps 669 mmHg 77%

    Day after tomorrow, 25 September, Wednesday

    Time Temperature Precipitation Wind Pressure Humidity
    00:00 +22°C° 0 mm 1 mps 668 mmHg 80%
    01:00 +21°C° 0 mm 1 mps 668 mmHg 84%
    02:00 +22°C° 0 mm 1 mps 669 mmHg 80%
    03:00 +21°C° 0 mm 2 mps 669 mmHg 77%
    04:00 +22°C° 0 mm 3 mps 669 mmHg 73%
    05:00 +23°C° 0 mm 2 mps 670 mmHg 72%
    06:00 +24°C° 0 mm 2 mps 670 mmHg 70%
    07:00 +24°C° 0 mm 2 mps 671 mmHg 69%
    08:00 +28°C° 0 mm 1 mps 671 mmHg 58%
    09:00 +31°C° 0 mm 1 mps 672 mmHg 47%
    10:00 +35°C° 0 mm 1 mps 672 mmHg 36%
    11:00 +36°C° 0 mm 1 mps 672 mmHg 32%
    12:00 +37°C° 0 mm 1 mps 671 mmHg 28%
    13:00 +39°C° 0 mm 1 mps 671 mmHg 24%
    14:00 +38°C° 0 mm 2 mps 670 mmHg 25%
    15:00 +37°C° 0 mm 2 mps 669 mmHg 26%
    16:00 +36°C° 0 mm 3 mps 668 mmHg 27%
    17:00 +34°C° 0 mm 2 mps 668 mmHg 31%
    18:00 +31°C° 0 mm 1 mps 668 mmHg 35%
    19:00 +27°C° 0 mm 0 mps 668 mmHg 39%
    20:00 +26°C° 0 mm 0 mps 669 mmHg 41%
    21:00 +25°C° 0 mm 0 mps 669 mmHg 44%
    22:00 +26°C° 0 mm 1 mps 669 mmHg 46%
    23:00 +25°C° 0 mm 1 mps 669 mmHg 50%

    26 September, Thursday

    Time Temperature Precipitation Wind Pressure Humidity
    00:00 +25°C° 0 mm 1 mps 669 mmHg 54%
    01:00 +25°C° 0 mm 1 mps 669 mmHg 58%
    02:00 +24°C° 0.1 mm 2 mps 669 mmHg 64%
    03:00 +23°C° 0.1 mm 2 mps 669 mmHg 70%
    04:00 +21°C° 0.1 mm 2 mps 669 mmHg 76%
    05:00 +23°C° 0.2 mm 1 mps 670 mmHg 76%
    06:00 +23°C° 0.2 mm 1 mps 671 mmHg 75%
    07:00 +22°C° 0.2 mm 0 mps 671 mmHg 75%
    08:00 +26°C° 1 mm 1 mps 672 mmHg 65%
    09:00 +28°C° 1 mm 2 mps 672 mmHg 54%
    10:00 +31°C° 1 mm 3 mps 672 mmHg 43%
    11:00 +33°C° 0 mm 3 mps 672 mmHg 40%
    12:00 +34°C° 0 mm 2 mps 671 mmHg 36%
    13:00 +35°C° 0 mm 2 mps 671 mmHg 32%
    14:00 +34°C° 0 mm 2 mps 670 mmHg 34%
    15:00 +33°C° 0 mm 3 mps 670 mmHg 36%
    16:00 +31°C° 0 mm 3 mps 669 mmHg 37%
    17:00 +29°C° 0 mm 2 mps 669 mmHg 44%
    18:00 +27°C° 0 mm 2 mps 669 mmHg 51%
    19:00 +25°C° 0 mm 1 mps 669 mmHg 57%
    20:00 +25°C° 0 mm 1 mps 669 mmHg 59%
    21:00 +25°C° 0 mm 1 mps 670 mmHg 61%
    22:00 +24°C° 0 mm 1 mps 670 mmHg 63%
    23:00 +24°C° 0 mm 1 mps 670 mmHg 64%

    27 September, Friday

    Time Temperature Precipitation Wind Pressure Humidity
    00:00 +24°C° 0 mm 1 mps 670 mmHg 66%
    01:00 +23°C° 0 mm 1 mps 670 mmHg 67%
    02:00 +23°C° 0 mm 1 mps 670 mmHg 70%
    03:00 +22°C° 0 mm 1 mps 670 mmHg 74%
    04:00 +22°C° 0 mm 1 mps 670 mmHg 77%
    05:00 +23°C° 0 mm 1 mps 670 mmHg 73%
    06:00 +24°C° 0 mm 1 mps 671 mmHg 69%
    07:00 +25°C° 0 mm 1 mps 672 mmHg 65%
    08:00 +27°C° 0.1 mm 2 mps 672 mmHg 54%
    09:00 +30°C° 0.1 mm 2 mps 673 mmHg 43%
    10:00 +33°C° 0.1 mm 3 mps 673 mmHg 32%
    11:00 +34°C° 0 mm 3 mps 672 mmHg 31%
    12:00 +34°C° 0 mm 3 mps 672 mmHg 29%
    13:00 +35°C° 0 mm 3 mps 671 mmHg 27%
    14:00 +35°C° 0 mm 3 mps 670 mmHg 27%
    15:00 +34°C° 0 mm 3 mps 670 mmHg 26%
    16:00 +34°C° 0 mm 2 mps 669 mmHg 25%
    17:00 +31°C° 0 mm 2 mps 669 mmHg 32%
    18:00 +28°C° 0 mm 2 mps 669 mmHg 38%
    19:00 +26°C° 0 mm 2 mps 669 mmHg 44%
    20:00 +25°C° 0 mm 1 mps 669 mmHg 52%
    21:00 +24°C° 0 mm 1 mps 669 mmHg 60%
    22:00 +22°C° 0 mm 1 mps 669 mmHg 68%
    23:00 +22°C° 0 mm 1 mps 669 mmHg 72%

    28 September, Saturday

    Time Temperature Precipitation Wind Pressure Humidity
    00:00 +22°C° 0 mm 1 mps 669 mmHg 75%
    01:00 +21°C° 0 mm 1 mps 668 mmHg 78%
    02:00 +21°C° 0 mm 1 mps 669 mmHg 80%
    03:00 +20°C° 0 mm 1 mps 669 mmHg 81%
    04:00 +20°C° 0 mm 1 mps 669 mmHg 82%
    05:00 +22°C° 0 mm 1 mps 670 mmHg 75%
    06:00 +23°C° 0 mm 1 mps 670 mmHg 69%
    07:00 +25°C° 0 mm 1 mps 671 mmHg 62%
    08:00 +28°C° 0 mm 1 mps 672 mmHg 50%
    09:00 +31°C° 0 mm 1 mps 672 mmHg 37%
    10:00 +34°C° 0 mm 1 mps 673 mmHg 25%
    11:00 +35°C° 0 mm 1 mps 672 mmHg 22%
    12:00 +35°C° 0 mm 1 mps 671 mmHg 20%
    13:00 +37°C° 0 mm 2 mps 670 mmHg 18%
    14:00 +35°C° 0 mm 1 mps 669 mmHg 17%
    15:00 +35°C° 0 mm 1 mps 669 mmHg 16%
    16:00 +34°C° 0 mm 1 mps 668 mmHg 16%
    17:00 +31°C° 0 mm 1 mps 668 mmHg 19%
    18:00 +29°C° 0 mm 1 mps 668 mmHg 21%
    19:00 +26°C° 0 mm 1 mps 668 mmHg 24%
    20:00 +25°C° 0 mm 1 mps 668 mmHg 32%
    21:00 +24°C° 0 mm 2 mps 669 mmHg 41%
    22:00 +23°C° 0 mm 2 mps 669 mmHg 49%
    23:00 +23°C° 0 mm 2 mps 669 mmHg 56%
    Show more